Theta_e
322 321 321 319 318 317 317 317 317 317 317 316 317 317 316 316 316 317 317 317 317 318 318 319 320 322 314 306 306 316 341 337 324 315 310 308 303 299 298 299 301 298 301 303 304 303 302
321 321 320 320 318 317 317 317 317 316 316 315 315 316 315 316 316 316 317 317 317 317 318 319 321 322 314 303 316 318 321 316 316 311 311 306 304 305 300 301 297 302 302 303 302 301 303
320 319 319 319 318 317 316 316 316 316 315 315 315 315 315 315 316 316 316 316 316 317 318 321 323 320 311 306 316 315 318 313 313 314 308 309 308 306 303 302 304 302 297 300 301 303 302
319 318 318 318 318 318 317 316 316 316 315 314 314 313 314 315 315 315 316 316 316 318 321 324 324 316 304 318 315 312 314 313 314 313 311 311 309 304 302 303 303 300 297 292 299 304 304
319 319 318 317 318 317 317 315 315 315 315 315 314 313 313 314 315 315 314 314 317 320 324 323 314 309 304 319 311 314 312 311 312 312 311 315 306 303 305 298 295 297 292 294 297 303 304
320 320 319 318 318 317 316 315 314 315 315 315 314 312 312 313 314 313 312 314 320 318 321 321 318 306 311 311 313 314 312 313 312 310 309 306 302 299 297 295 290 292 293 294 295 300 301
320 320 319 319 318 317 316 315 314 314 314 314 314 313 312 312 312 312 309 309 308 308 311 305 305 309 314 318 316 311 313 311 311 307 300 304 298 293 296 299 298 297 295 294 299 302 299
320 320 319 318 318 316 315 315 314 314 314 314 313 313 312 312 311 311 306 306 312 307 300 312 312 312 316 318 309 313 312 305 305 299 302 298 296 301 302 302 299 298 295 294 299 302 298
319 319 319 318 317 316 315 314 314 314 313 313 312 312 312 311 310 308 307 312 317 311 301 307 311 311 312 311 308 310 309 305 301 298 298 294 299 305 302 299 298 297 296 296 295 298 297
319 319 318 317 316 315 315 314 314 313 313 312 311 311 311 309 308 305 307 311 311 309 295 301 306 310 308 309 306 313 312 306 301 299 299 296 302 302 300 301 299 292 299 298 297 292 287
318 317 317 316 316 315 314 313 313 313 312 311 310 311 310 309 301 304 311 313 313 309 285 308 307 312 308 305 306 308 312 307 299 300 299 296 299 299 298 299 299 295 299 296 296 290 289
317 316 317 316 316 315 314 313 312 312 311 310 310 310 309 305 302 307 311 310 307 295 287 305 306 303 302 305 307 308 309 308 306 300 299 297 302 301 299 301 300 300 297 296 295 290 284
317 317 316 316 316 315 314 312 312 311 310 310 309 309 306 306 301 306 308 306 293 289 304 303 301 302 301 302 304 305 303 299 295 291 292 298 298 299 301 295 298 295 292 285 285 284 284
317 316 316 316 315 315 314 313 311 310 309 308 307 306 304 306 303 305 307 299 287 299 301 308 305 302 299 301 301 302 300 296 300 297 292 290 290 297 300 296 293 294 292 284 278 279 284
316 315 315 316 315 315 314 312 311 309 308 306 305 299 301 304 308 306 302 291 292 298 305 306 305 299 297 301 300 299 298 298 300 299 292 293 294 299 300 299 298 296 293 297 289 290 284
313 312 313 314 314 314 314 312 311 309 307 305 297 297 301 307 310 306 298 294 298 307 308 306 298 301 296 298 297 296 297 303 302 303 301 299 292 300 299 298 297 296 301 291 290 282 281
312 312 312 312 312 312 313 312 310 308 306 304 295 297 305 311 311 302 293 296 303 309 308 305 301 300 300 299 299 296 298 302 304 300 299 296 293 294 297 293 291 292 290 291 293 289 281
310 311 311 311 311 312 312 312 310 307 305 297 293 292 307 309 301 299 297 303 304 307 310 307 306 302 299 301 298 299 299 302 306 302 296 297 292 289 294 299 300 296 294 294 287 287 287
308 309 310 310 310 311 312 310 309 307 304 293 289 292 305 308 295 296 302 305 307 305 307 306 304 304 303 298 294 299 302 306 304 302 299 298 290 285 287 290 298 294 296 292 293 290 288
308 308 309 309 309 312 311 309 308 307 305 295 291 290 297 301 298 294 294 298 298 308 309 309 306 304 301 298 298 297 300 305 305 304 313 304 292 288 284 290 294 292 295 296 292 287 288
307 307 308 309 308 310 310 309 308 306 305 296 294 293 293 288 292 293 295 297 298 301 309 309 305 304 300 295 296 296 300 300 303 310 301 295 290 292 294 297 298 296 296 296 292 293 289
306 306 306 308 308 310 309 309 308 306 305 296 294 292 294 293 293 294 296 295 297 300 304 304 302 306 302 298 299 296 300 297 296 299 296 296 291 293 292 299 298 296 298 298 296 295 293
306 306 306 306 309 308 309 309 308 307 302 293 295 295 293 292 291 289 295 295 296 299 303 305 306 304 302 304 305 303 301 301 300 297 295 295 294 290 288 298 295 290 297 297 297 300 295
305 305 305 305 306 308 308 309 308 307 302 294 293 293 289 288 291 292 294 295 296 297 295 302 306 304 307 310 308 304 302 302 300 297 300 295 295 295 290 294 283 295 303 303 302 302 301
305 305 305 305 306 306 308 307 308 308 306 295 294 292 289 286 292 293 294 294 295 297 296 301 305 308 310 307 299 295 294 297 299 299 299 297 294 290 287 288 293 297 299 300 298 299 302
304 304 304 305 305 305 306 306 306 307 307 296 294 296 291 288 289 296 293 293 290 291 293 299 304 308 308 303 299 290 288 293 293 297 302 301 298 293 289 284 280 295 304 308 303 292 303
303 303 303 303 304 304 305 305 305 307 306 297 294 294 290 288 293 295 290 290 294 292 290 295 297 301 304 298 294 291 291 298 290 291 294 293 294 291 288 285 291 302 306 308 291 292 304
304 304 304 304 303 303 304 304 304 305 304 297 293 296 291 287 292 296 298 293 292 291 287 293 295 298 298 294 294 294 293 295 293 296 295 294 291 289 289 285 284 305 304 296 299 300 301
304 303 303 303 303 303 303 303 303 303 305 301 290 295 297 293 292 298 299 301 300 298 292 292 294 296 302 295 294 296 293 295 293 289 301 294 296 294 294 292 300 304 300 303 303 301 301
Wind_Speed
17 18 19 20 20 19 19 19 20 20 21 21 20 20 19 19 18 17 15 14 13 12 11 10 10 9 1 1 8 6 8 5 3 2 4 1 2 0 2 2 5 2 3 1 6 7 6
19 19 20 20 19 19 20 20 21 22 22 22 22 22 21 20 19 17 15 13 11 9 9 8 7 7 0 2 5 9 10 2 6 2 3 2 4 4 2 3 1 2 2 3 2 5 4
20 20 21 20 20 20 20 21 22 22 22 23 23 23 22 21 20 19 16 13 10 8 7 7 5 3 1 11 5 8 10 7 4 5 2 4 2 7 4 8 2 1 4 5 3 5 4
20 21 21 20 20 20 21 21 21 22 22 22 23 24 23 23 22 21 19 15 11 7 6 4 2 2 6 7 5 4 5 6 7 7 3 3 3 2 2 3 9 4 6 2 6 5 3
16 17 20 20 19 19 20 21 22 22 23 23 24 25 24 24 24 23 22 18 11 5 4 1 1 2 9 9 4 7 5 1 5 4 3 3 3 1 5 3 6 6 3 6 7 9 5
15 15 15 16 18 18 19 20 21 22 23 24 25 26 26 26 24 23 26 10 1 5 3 4 3 3 4 3 3 4 2 1 2 3 4 2 4 2 3 5 3 4 5 4 5 5 4
13 14 15 16 17 18 18 20 21 22 23 24 25 26 28 29 27 24 12 4 6 4 1 7 5 5 6 4 2 2 3 1 2 3 3 3 4 2 5 6 6 3 2 3 1 4 5
12 13 15 16 18 17 18 19 20 21 23 24 25 27 27 32 30 19 2 1 7 4 9 10 13 12 10 7 3 2 7 2 2 5 3 4 5 8 5 3 1 3 3 4 3 5 4
12 12 13 14 16 16 18 19 20 22 22 23 24 26 27 32 33 1 3 6 8 5 3 9 11 7 6 9 6 7 7 3 4 3 5 5 6 7 4 3 2 3 4 4 2 2 1
11 12 13 13 14 16 18 20 21 22 23 23 24 25 25 32 6 7 8 5 10 1 5 9 4 6 4 6 3 5 7 4 3 2 5 2 4 3 1 1 3 3 2 4 5 5 2
13 14 12 12 13 14 16 18 21 22 23 24 24 24 22 9 5 5 8 14 12 6 2 6 4 4 8 10 4 1 3 3 3 4 3 7 1 0 4 2 3 5 2 2 2 4 4
13 15 13 14 15 16 17 18 20 22 23 25 25 26 22 0 3 12 11 13 4 7 7 4 7 6 6 5 5 4 3 2 2 1 1 7 4 4 5 2 2 1 4 8 6 4 3
11 12 13 14 14 15 16 18 21 23 24 26 27 29 16 4 8 1 8 5 6 4 5 5 6 6 10 8 6 8 7 5 4 3 3 5 4 2 5 3 7 5 7 4 6 5 7
10 11 12 12 13 15 16 17 19 22 26 29 30 31 8 9 5 3 3 6 3 5 6 5 3 9 10 8 9 9 7 5 6 4 2 2 7 4 3 6 5 5 9 8 5 2 5
11 12 14 14 14 14 15 16 18 22 26 30 29 4 5 6 10 5 5 3 8 6 4 5 9 5 6 7 7 10 10 9 8 9 9 3 3 3 5 3 5 1 2 6 7 2 3
12 15 14 14 15 15 16 15 17 21 26 31 8 5 6 6 10 4 6 6 7 5 6 6 2 4 4 4 2 7 9 8 7 6 9 7 2 1 2 3 2 5 4 3 4 3 3
10 11 13 14 15 15 15 14 16 20 25 26 3 6 6 10 4 5 5 7 5 9 7 3 6 8 8 3 3 2 6 4 7 6 6 6 6 5 6 4 6 3 2 5 6 6 7
11 12 14 15 16 16 14 12 14 16 22 8 4 5 5 7 3 1 1 3 3 10 14 9 5 10 7 4 1 1 5 6 5 10 8 2 6 3 7 5 4 7 8 6 7 5 3
14 13 14 14 17 16 14 10 12 13 12 3 4 5 7 3 3 5 7 6 5 7 8 5 6 8 5 5 1 4 3 1 10 5 9 6 1 3 9 7 7 2 2 4 4 4 7
12 13 13 12 17 14 9 10 12 13 10 3 3 6 6 5 2 2 6 5 8 6 6 7 8 8 3 4 5 5 3 1 4 5 8 10 4 8 9 6 3 4 6 5 5 4 5
10 11 13 12 13 11 11 11 12 15 15 2 1 4 2 5 5 7 2 5 6 7 5 8 7 6 3 3 4 6 4 2 5 6 5 6 5 4 4 4 0 2 7 8 3 8 6
9 10 11 13 8 8 9 10 11 16 18 2 1 3 5 5 5 6 3 4 11 14 6 3 4 10 8 5 5 7 6 3 5 2 4 2 4 3 2 2 4 4 7 9 8 5 7
9 9 10 11 9 7 7 7 10 14 9 3 4 4 4 4 5 4 1 8 17 17 9 6 6 2 5 8 7 7 3 4 9 9 4 5 6 4 3 1 4 5 5 4 5 6 2
8 8 8 9 10 10 6 6 6 9 6 2 2 2 2 4 2 3 11 11 10 16 9 2 3 3 3 11 3 3 7 7 8 5 7 6 5 3 3 2 1 7 5 8 11 8 13
9 8 8 7 8 10 6 4 6 5 4 2 2 2 1 3 3 9 7 6 11 10 6 4 3 7 5 11 7 5 4 3 4 0 7 7 5 3 4 3 5 7 5 3 6 5 7
7 8 8 8 6 8 8 7 7 7 4 1 3 2 1 1 7 4 6 5 4 6 7 4 6 3 8 4 3 2 2 1 1 6 1 9 3 4 2 5 5 3 6 4 5 2 1
4 6 7 7 7 7 7 5 8 7 3 2 4 1 0 3 5 4 3 1 4 4 5 5 8 5 5 4 4 3 3 5 4 2 2 4 4 14 4 4 6 4 4 3 2 6 3
5 5 6 7 7 7 8 8 7 7 2 3 4 3 4 3 10 9 4 8 3 0 2 6 7 5 3 4 5 6 7 7 5 5 4 3 4 4 3 3 6 6 1 4 7 3 5
5 5 6 7 8 8 8 8 8 8 6 2 2 3 3 4 8 8 14 17 14 12 4 4 4 4 3 1 2 2 3 4 6 3 2 4 7 5 6 8 5 4 3 3 7 6 4
Wind_Direction
23 22 20 15 11 8 5 3 360 358 355 352 350 350 349 345 342 335 326 319 314 315 319 316 314 323 111 45 251 230 207 223 281 204 221 229 330 236 342 276 328 133 356 223 175 109 129
20 17 15 13 9 6 3 2 360 357 354 351 349 347 347 345 340 335 328 318 309 308 311 304 304 316 161 270 231 187 197 205 239 226 266 154 266 218 237 296 137 222 98 358 177 123 164
18 16 11 8 7 4 2 0 359 356 353 351 347 346 344 344 339 335 330 318 307 304 302 291 285 258 270 241 210 204 157 208 202 209 281 298 347 50 344 330 310 310 14 9 264 156 169
16 13 10 6 4 0 359 357 357 353 351 350 347 343 343 342 340 334 329 317 300 297 289 274 216 259 250 249 193 165 183 289 240 230 218 266 33 37 155 306 357 355 55 24 277 135 216
17 12 10 6 360 358 356 355 353 351 350 348 346 342 341 340 339 332 326 313 284 255 254 213 150 166 272 310 195 225 172 60 214 242 231 234 61 202 9 55 2 7 245 221 286 190 150
4 2 3 2 359 356 354 353 352 349 348 347 345 341 339 337 336 331 322 286 258 310 160 190 261 353 284 244 210 151 235 173 265 321 341 125 56 36 28 71 242 275 296 311 191 181 127
355 355 355 355 356 353 351 350 350 347 346 345 342 341 337 334 333 332 335 12 18 9 107 198 205 244 302 205 146 212 198 340 14 44 244 283 62 254 252 183 206 257 289 307 238 212 117
350 347 348 353 354 350 349 348 346 345 344 343 342 339 338 332 329 333 140 69 223 157 297 233 234 236 252 276 260 245 132 135 59 266 344 4 227 221 210 133 94 309 323 338 13 43 89
344 344 345 347 347 347 347 346 343 342 341 340 339 337 337 332 323 29 243 230 284 28 293 276 212 207 218 159 196 226 142 173 267 293 295 171 231 180 179 193 183 42 72 15 45 335 20
340 342 344 344 344 344 345 343 340 339 338 339 337 334 338 334 21 331 281 327 354 208 32 278 203 230 138 146 244 191 170 132 332 292 317 238 259 136 17 112 152 97 4 46 15 60 269
342 352 344 337 337 339 338 339 336 336 336 334 332 328 335 326 284 314 277 335 329 57 357 250 185 178 151 141 174 38 155 92 218 276 50 266 24 278 66 119 94 194 44 45 357 20 23
350 348 342 340 341 341 339 336 335 334 333 330 327 322 335 207 235 241 311 298 45 53 257 267 168 159 120 165 191 153 129 111 164 249 266 230 257 172 161 123 130 274 33 23 36 89 3
342 341 336 333 331 331 330 331 334 332 331 327 322 313 313 259 235 302 346 28 52 161 302 208 170 146 168 179 181 155 182 179 159 95 295 323 260 165 123 57 1 84 56 349 358 13 222
330 330 329 327 329 329 329 329 332 331 329 325 320 309 244 205 218 225 29 55 196 238 244 304 225 177 185 175 215 194 158 191 262 120 130 147 324 167 164 154 185 165 149 150 198 224 273
335 335 330 331 328 325 325 328 330 332 330 324 319 309 280 262 206 133 89 127 206 226 256 12 345 173 202 232 195 194 195 196 209 166 162 131 334 51 88 117 118 255 135 172 111 341 55
335 338 333 334 329 327 324 331 333 336 334 325 318 326 274 273 142 97 90 216 222 228 358 38 350 327 245 270 184 178 179 201 183 176 139 197 142 244 192 66 327 145 172 65 18 129 250
347 342 338 338 334 326 324 335 338 341 335 324 353 340 258 9 97 51 166 218 269 278 304 282 275 287 252 255 162 223 234 248 152 158 109 139 116 275 107 185 175 348 319 65 115 138 163
345 341 339 339 336 328 321 332 341 345 338 44 1 327 305 359 62 149 219 230 323 297 310 296 269 267 200 156 275 268 258 214 169 140 139 124 130 183 224 250 223 178 190 147 127 232 211
329 335 334 338 336 323 319 343 345 352 24 340 336 275 309 68 55 344 332 322 306 297 304 269 245 244 209 174 145 227 155 306 129 106 154 175 48 52 341 354 7 70 210 157 113 82 195
321 327 332 337 346 345 8 352 346 341 351 96 12 342 327 35 46 55 360 304 328 299 291 335 282 212 169 198 181 235 121 154 105 120 116 98 119 151 182 195 197 300 317 306 140 125 222
323 325 328 329 341 356 352 349 347 339 338 102 87 280 336 332 335 334 294 268 310 327 13 358 333 25 82 312 225 199 155 97 36 148 77 103 149 156 193 208 256 284 300 303 227 231 166
320 323 326 330 333 348 340 347 350 344 337 63 54 43 346 286 297 333 349 309 320 355 307 318 358 319 37 62 282 238 153 131 178 243 103 38 161 118 290 317 320 317 295 297 284 294 245
319 323 324 327 335 350 334 348 354 353 1 26 318 337 110 277 318 358 259 3 314 320 286 209 185 359 360 354 326 327 347 126 159 147 131 119 130 97 255 330 17 319 224 316 296 8 258
313 315 319 327 324 324 326 344 8 5 36 142 278 360 49 275 316 282 318 312 323 314 282 282 106 118 346 332 321 308 27 50 79 95 132 117 107 115 196 70 192 240 336 277 94 38 79
315 314 317 321 328 316 313 342 2 337 0 76 295 42 346 278 315 300 317 318 318 302 313 253 161 148 105 34 357 308 352 54 3 89 114 110 109 117 160 181 280 303 341 142 132 45 354
326 325 338 335 317 341 354 4 336 315 292 57 259 210 274 245 240 250 336 316 325 328 329 308 353 180 100 100 90 300 245 221 298 333 121 108 100 142 173 163 212 242 289 342 125 105 244
314 324 327 326 343 341 321 324 340 311 231 114 275 86 345 263 273 7 233 283 296 339 273 317 333 335 87 114 149 214 259 164 216 301 297 121 166 224 166 197 276 212 268 318 160 204 189
332 317 316 328 334 327 326 337 335 340 243 98 264 250 167 254 279 258 288 275 309 194 301 300 348 345 50 143 177 185 201 192 213 217 188 186 159 180 125 122 268 196 232 151 182 191 156
349 339 329 330 328 326 320 323 313 304 280 119 276 304 309 229 254 287 261 252 238 223 220 277 237 247 257 65 359 311 278 150 173 258 115 218 179 181 166 210 213 156 135 124 128 142 165